Vorticity
nan nan nan nan nan nan nan nan nan nan nan nan nan nan nan nan nan nan nan nan nan nan nan nan nan nan nan nan nan nan nan nan nan nan nan nan nan nan nan nan nan nan nan nan
nan 8 9 6 8 8 5 12 10 10 10 9 8 8 8 7 7 7 5 6 7 6 7 7 7 8 8 8 9 10 10 9 9 9 9 11 12 11 10 11 10 9 10 nan
nan 7 13 6 3 11 8 7 9 7 10 14 7 8 8 7 7 6 6 7 7 7 7 8 8 8 8 9 8 9 10 10 10 10 10 10 11 13 12 12 10 10 9 nan
nan 10 11 9 9 9 10 9 12 10 8 11 12 10 9 10 10 7 6 7 7 8 8 9 9 9 8 9 10 9 9 9 9 9 9 10 12 13 13 11 11 11 10 nan
nan 11 11 10 7 8 12 11 10 11 10 11 13 9 11 6 6 8 7 8 9 9 7 6 7 7 9 10 10 9 9 9 9 9 9 11 11 11 13 14 12 11 11 nan
nan 10 9 13 12 8 11 12 9 10 11 10 7 8 11 8 6 9 9 9 9 9 10 10 8 7 9 8 8 9 8 9 10 11 11 9 9 11 14 15 13 11 10 nan
nan 9 12 10 8 8 11 11 11 9 10 9 7 10 9 7 7 7 8 9 10 10 9 10 9 9 10 10 9 8 8 8 9 9 12 12 11 13 13 13 13 13 11 nan
nan 13 14 10 6 8 11 10 9 9 10 8 9 8 7 7 7 9 9 9 9 9 9 10 9 8 9 9 10 9 10 9 10 11 11 10 9 11 15 14 12 13 12 nan
nan 12 14 7 6 11 7 11 13 10 9 10 9 7 7 8 9 9 9 9 10 8 8 9 10 8 8 8 8 9 9 10 10 10 10 10 13 13 11 13 14 13 13 nan
nan 11 8 7 6 8 11 11 10 12 11 8 8 9 8 8 8 9 9 9 9 9 10 9 10 10 10 9 10 10 9 10 10 11 11 11 12 11 12 12 11 12 12 nan
nan 12 13 16 11 12 10 10 9 8 8 9 9 8 9 9 9 9 9 9 9 9 10 9 9 10 10 10 10 10 10 11 11 11 10 12 12 10 9 7 8 8 8 nan
nan 14 13 16 18 16 10 9 8 8 9 8 8 8 9 9 9 9 9 9 10 9 10 10 10 10 10 11 11 10 11 11 11 10 11 11 11 8 6 7 7 10 13 nan
nan 10 12 9 12 14 12 10 10 9 8 8 10 9 9 9 9 9 10 10 11 10 10 10 11 10 11 11 11 10 10 9 10 10 10 10 10 9 10 11 13 16 17 nan
nan 9 11 10 11 12 10 9 7 8 9 9 9 10 11 9 9 10 10 10 11 11 11 11 12 11 11 12 12 11 11 11 11 11 10 10 10 11 11 8 12 14 14 nan
nan 5 10 14 12 10 8 8 7 8 9 10 11 9 9 10 10 9 10 11 12 13 12 13 13 12 11 12 12 12 12 11 9 11 12 10 10 11 10 10 11 10 10 nan
nan 9 9 8 8 8 7 7 8 8 10 11 11 12 11 10 10 10 9 10 11 11 12 12 12 12 12 12 12 13 11 10 9 12 12 12 13 11 9 10 11 11 10 nan
nan 12 10 12 12 10 8 8 10 11 11 12 11 11 12 11 10 11 9 9 11 12 12 13 13 13 13 13 13 11 10 12 13 12 11 11 12 12 10 10 11 11 10 nan
nan 14 13 11 12 10 10 11 12 12 12 11 12 13 13 12 10 9 10 11 12 12 13 14 13 14 14 12 11 10 11 11 14 12 11 9 12 11 9 11 11 11 11 nan
nan 9 9 9 9 11 11 12 11 12 13 12 11 11 11 12 12 11 11 12 12 12 11 9 13 16 16 13 11 14 12 12 11 10 10 10 11 12 11 10 11 12 10 nan
nan 8 9 10 10 10 11 10 10 11 11 12 12 13 12 11 12 14 14 15 14 12 9 8 14 18 16 15 16 13 11 10 10 11 12 13 11 11 11 11 12 11 9 nan
nan 8 9 10 10 10 11 10 11 11 11 12 12 12 12 12 13 13 13 12 11 9 11 15 17 13 13 10 17 13 11 10 15 13 9 11 13 12 11 13 12 10 11 nan
nan 10 9 8 9 10 10 11 11 11 11 12 11 12 12 13 15 15 14 13 7 9 18 15 7 7 5 14 18 13 13 14 13 12 12 12 12 12 12 12 12 12 13 nan
nan 10 9 9 10 11 11 10 10 11 12 11 11 13 14 15 12 13 12 10 7 12 15 9 3 8 16 24 16 14 13 13 12 12 12 10 13 13 13 12 13 14 14 nan
nan 10 10 10 11 10 9 10 11 13 13 12 13 12 12 12 13 11 7 5 8 17 15 8 7 11 24 21 14 15 14 12 12 12 11 13 14 13 13 13 14 14 14 nan
nan 11 10 10 11 10 10 11 13 11 9 12 13 12 13 14 11 10 11 8 12 17 13 7 12 24 24 14 12 13 13 13 13 12 12 15 13 12 13 13 13 13 14 nan
nan 9 10 11 11 10 11 11 12 10 10 11 11 11 12 12 10 11 10 10 13 16 17 15 15 15 14 13 12 13 13 13 13 12 13 13 13 13 12 12 13 13 12 nan
nan nan nan nan nan nan nan nan nan nan nan nan nan nan nan nan nan nan nan nan nan nan nan nan nan nan nan nan nan nan nan nan nan nan nan nan nan nan nan nan nan nan nan nan
CAPE
0 0 0 0 0 0 0 0 0 0 0 0 0 0 0 0 0 0 0 0 0 0 0 0 0 0 0 0 0 0 0 0 0 0 0 0 0 0 0 0 0 0 0 0
0 0 0 0 0 0 0 0 0 0 0 0 0 0 0 0 0 0 0 0 0 0 0 0 0 0 0 0 0 0 0 0 0 0 0 0 0 0 0 0 0 0 0 0
0 0 0 0 0 0 0 0 0 0 0 0 0 0 0 0 0 0 0 0 0 0 0 0 0 0 0 0 0 0 0 0 0 0 0 0 0 0 0 0 0 0 0 0
0 0 0 0 0 0 0 0 0 0 0 0 0 0 0 0 0 0 0 0 0 0 0 0 0 0 0 0 0 0 0 0 0 0 0 0 0 0 0 1 0 0 0 0
0 0 0 0 0 0 0 0 0 0 0 0 0 0 0 0 0 0 0 0 0 0 0 0 0 0 0 0 0 0 0 0 0 0 0 1 2 4 3 3 4 1 0 0
0 0 0 0 0 0 0 0 0 0 0 0 0 0 0 0 0 0 0 0 0 0 0 0 0 0 0 0 0 0 0 0 0 1 3 1 0 0 0 1 0 2 0 0
0 0 0 0 0 0 0 0 0 0 0 0 0 0 0 0 0 0 0 0 0 0 0 0 0 0 0 0 0 0 0 0 0 0 2 0 0 0 0 1 1 0 1 0
0 0 0 0 0 0 0 0 0 0 0 0 0 0 0 0 0 0 0 0 0 0 0 0 0 0 0 0 0 0 0 0 0 0 0 0 2 0 1 0 2 2 1 0
0 0 0 0 0 0 0 0 0 0 0 0 0 0 0 0 0 0 0 0 0 0 0 0 0 0 0 0 0 0 0 0 0 0 0 0 0 1 1 2 0 2 0 0
0 0 0 0 0 0 0 0 0 0 0 0 0 0 0 0 0 0 0 0 0 0 0 0 0 0 0 0 0 0 0 0 0 0 0 0 0 1 0 5 1 0 0 0
0 0 0 0 0 0 0 0 0 0 0 0 0 0 0 0 0 0 0 0 0 0 0 0 0 0 0 0 0 0 0 0 0 0 0 0 0 0 3 3 4 3 1 0
0 0 0 0 0 0 0 0 0 0 0 0 0 0 0 0 0 0 0 0 0 0 0 0 0 0 0 0 0 0 0 0 0 0 0 0 1 1 0 4 4 14 10 9
0 0 0 0 0 0 0 0 0 0 0 0 0 0 0 0 0 0 0 0 0 0 0 0 0 0 0 0 0 0 0 0 3 3 2 2 2 1 1 2 4 3 14 10
0 0 0 0 0 0 0 0 0 0 0 0 0 0 0 0 0 0 0 0 0 0 0 0 0 0 0 0 0 0 0 1 4 2 1 3 7 2 4 6 7 1 7 10
0 0 0 0 0 0 0 0 0 0 0 0 0 0 0 0 0 0 0 0 0 0 0 0 0 0 0 0 0 0 0 3 3 0 3 7 8 11 3 2 5 7 1 1
0 0 0 0 0 0 0 0 0 0 0 0 0 0 0 0 0 0 0 0 0 0 0 0 0 0 0 0 0 0 0 2 3 0 2 12 11 15 8 1 4 7 5 3
0 0 0 0 0 0 0 0 0 0 0 0 0 0 0 0 0 0 0 0 0 0 0 0 0 0 0 0 0 1 5 2 4 2 3 10 14 23 8 3 4 6 3 0
0 0 0 0 0 0 0 0 0 0 0 0 0 0 0 0 0 0 0 0 0 0 0 0 0 0 1 1 1 7 3 1 1 5 6 6 8 18 3 2 4 8 9 0
0 0 0 0 0 0 0 0 0 0 0 0 0 0 0 0 0 1 5 6 7 7 1 1 1 0 3 3 4 7 2 2 2 11 13 12 14 9 6 2 6 11 13 3
0 0 0 0 0 0 0 0 0 0 0 0 0 0 0 2 4 7 10 14 9 9 10 7 10 10 7 9 24 9 9 3 7 10 10 11 12 12 10 17 20 16 4 1
0 0 0 0 0 0 0 0 0 0 0 0 0 0 1 3 6 9 15 16 4 6 10 14 12 16 17 25 18 10 10 9 10 8 21 19 20 18 18 8 6 7 1 0
0 0 0 0 0 0 0 0 0 0 0 0 0 1 1 3 4 7 9 13 13 12 11 19 12 10 17 27 24 25 21 20 17 4 5 8 12 13 11 11 12 6 5 6
0 0 0 0 0 0 0 0 0 0 0 1 1 1 4 6 8 13 8 5 11 9 8 9 6 12 11 4 7 6 15 3 3 5 8 13 14 16 17 16 13 12 10 9
0 0 0 0 0 0 0 0 0 0 0 0 0 0 0 5 4 4 10 7 9 2 2 0 1 10 18 12 21 9 5 5 4 10 10 14 16 11 10 10 11 14 8 7
0 0 0 0 0 0 0 0 0 0 0 0 0 0 0 5 10 6 6 2 5 3 0 5 7 8 7 13 9 7 6 6 7 11 8 6 9 9 10 9 7 6 6 4
0 0 0 0 0 0 0 0 0 0 0 0 0 0 1 1 4 2 4 3 1 3 5 4 5 8 10 7 7 5 4 5 3 2 10 5 6 6 5 4 4 4 3 3
0 0 0 0 0 0 0 0 0 0 0 0 0 1 0 0 1 2 2 3 4 5 2 4 6 8 6 6 2 2 2 1 3 5 3 4 3 4 4 4 5 3 2 1